Theta_e
286 286 284 283 282 281 279 279 279 279 278 277 276 276 275 275 275 275 275 275 275 275 276 276 276 277 277 277 278 278 278 278 275 278 280 282 282 284 286 288 290 292 295
286 284 282 281 279 278 277 278 278 276 276 275 275 274 273 273 273 273 272 273 272 272 272 272 272 273 273 273 274 274 275 276 275 273 277 278 278 281 282 282 288 291 292
284 282 280 278 277 277 277 276 276 275 274 274 273 272 272 272 271 271 271 271 270 270 271 271 271 272 271 272 272 271 272 274 274 273 273 276 276 277 278 282 286 289 292
282 279 278 277 276 276 276 275 274 273 272 272 272 271 270 270 271 271 271 270 270 271 272 272 272 272 272 271 271 271 272 271 272 271 272 273 274 277 278 278 283 286 289
279 278 276 276 276 275 273 273 272 271 271 270 270 269 270 270 270 270 271 271 271 272 272 272 273 273 274 274 273 272 272 271 271 271 271 272 273 275 277 281 282 284 292
277 276 276 275 273 273 272 271 270 269 269 269 269 269 269 270 272 273 273 272 272 271 271 272 273 273 274 275 276 277 276 273 271 271 271 271 272 274 276 277 280 280 285
276 276 274 273 271 271 270 269 268 268 269 268 268 269 269 269 272 273 273 272 271 271 271 271 272 274 274 273 274 276 276 278 279 276 274 274 275 277 278 277 278 280 282
275 273 272 271 270 269 268 267 267 268 267 268 268 268 268 269 272 272 273 272 271 271 272 272 273 273 274 274 273 272 273 274 276 276 276 276 277 278 278 279 279 280 283
273 272 270 270 268 267 266 266 267 267 267 267 267 267 266 266 270 272 273 271 272 272 273 274 274 274 276 276 274 273 273 274 277 279 280 281 282 282 281 279 277 279 279
272 270 270 269 267 266 266 266 267 266 266 267 267 267 266 266 270 273 274 273 271 273 274 275 275 273 276 276 273 272 271 273 275 276 277 279 281 281 283 281 279 276 282
272 269 268 267 265 265 265 266 264 264 266 264 265 267 268 270 270 273 275 274 273 273 272 271 272 274 275 276 276 273 273 275 275 275 276 277 279 279 279 280 282 281 281
269 267 265 264 264 263 262 263 263 264 264 265 266 268 270 270 271 272 275 276 276 271 270 271 271 275 274 275 274 276 278 277 276 276 276 277 278 278 279 281 283 285 287
267 265 263 262 264 262 261 263 264 264 266 266 267 267 267 269 270 272 274 275 275 272 271 273 272 272 272 272 273 274 273 273 274 274 274 276 278 280 281 283 283 284 285
264 263 262 262 262 262 264 264 265 265 265 266 267 266 267 267 269 270 272 272 273 271 272 268 268 269 270 270 269 270 270 271 271 271 273 276 280 281 280 281 282 283 284
264 263 263 263 263 263 265 264 266 266 267 266 266 266 266 265 268 273 272 271 271 271 269 265 264 265 265 266 266 268 269 269 268 270 270 271 274 280 281 282 282 283 282
264 264 264 263 264 264 263 262 265 267 267 267 267 267 268 270 272 273 273 273 272 272 264 262 262 263 263 265 264 265 267 267 268 268 269 270 272 274 280 282 284 283 283
265 264 264 263 263 262 263 264 262 263 265 265 266 267 268 269 271 271 271 271 269 267 261 261 261 262 263 264 264 265 265 267 268 268 269 268 269 271 274 279 282 283 284
265 264 263 263 263 263 263 263 263 263 261 261 263 265 266 268 269 269 270 266 261 262 261 260 261 262 262 263 264 264 266 266 266 267 268 267 267 268 270 273 277 284 284
263 263 263 262 262 261 261 260 260 260 259 259 260 262 261 266 267 267 267 261 259 259 260 260 261 262 262 263 264 264 266 266 266 267 266 266 266 266 267 269 273 277 284
262 261 260 260 259 259 259 259 259 258 258 258 258 258 257 260 259 259 260 260 259 259 259 260 261 262 263 263 264 265 266 265 266 266 265 265 265 266 266 267 270 272 282
260 259 259 259 258 258 259 259 259 258 257 257 257 256 265 256 257 257 257 258 258 258 258 259 260 261 262 263 264 265 266 265 267 266 264 264 264 264 266 268 269 270 284
259 258 259 258 258 258 257 257 257 257 256 256 256 256 260 256 256 255 256 257 257 257 258 259 260 261 262 263 264 266 266 265 267 265 264 264 265 265 266 268 270 273 288
259 258 258 257 258 256 256 256 256 256 255 254 255 255 255 254 253 254 255 256 256 256 257 258 259 260 262 263 265 267 267 266 267 266 264 264 264 265 265 267 270 276 287
259 258 257 256 255 256 255 255 255 254 255 254 254 254 254 252 253 254 254 255 255 255 256 257 258 259 261 262 265 267 269 269 269 266 266 264 264 264 265 266 269 281 288
258 257 257 256 256 256 255 255 255 254 254 255 254 254 253 253 253 253 254 253 253 253 254 255 258 259 260 261 264 268 270 270 269 267 266 265 264 264 264 265 267 276 288
258 257 257 256 256 255 255 255 254 255 254 254 253 253 253 253 252 252 252 252 252 252 253 255 256 258 260 262 263 268 271 271 270 267 266 265 264 264 263 264 265 268 272
Wind_Speed
18 16 15 13 13 11 10 10 8 7 6 7 8 8 9 10 9 10 12 12 13 14 14 15 16 16 13 13 13 13 15 14 17 17 18 18 21 21 20 20 22 19 18
17 16 15 14 13 12 11 10 8 8 7 7 7 8 9 9 10 11 11 11 13 15 16 16 16 12 16 15 13 18 16 17 16 22 20 16 21 21 21 26 21 17 18
17 16 15 15 14 14 12 11 9 7 6 6 7 9 9 9 10 10 11 12 13 15 15 17 16 16 17 14 16 16 15 14 15 16 19 14 17 18 20 21 21 20 17
17 16 16 15 14 12 11 9 8 6 5 7 8 9 9 9 10 10 11 12 14 15 16 16 16 18 19 18 17 18 17 16 15 16 16 17 16 17 16 18 18 14 18
17 16 16 14 13 12 11 9 7 6 6 7 8 9 8 8 7 8 11 13 15 16 16 17 17 19 28 26 16 17 18 16 14 14 15 16 16 15 16 13 16 15 12
17 16 14 14 13 12 11 9 8 7 7 7 8 9 8 6 11 14 15 13 15 16 17 16 17 21 21 31 33 36 29 19 19 15 16 19 22 18 16 16 16 14 6
16 14 14 12 11 11 10 9 7 7 7 8 8 7 8 9 13 14 17 12 15 15 17 17 17 14 19 20 26 34 33 35 35 22 21 20 21 19 18 20 19 17 18
16 14 13 12 12 11 9 9 8 7 8 7 6 5 8 8 13 15 17 14 14 17 18 19 20 21 19 22 20 20 22 21 20 18 21 22 22 21 20 19 21 21 15
16 15 12 11 11 11 10 9 7 6 6 6 5 6 8 9 13 15 16 12 15 18 17 18 20 20 25 34 24 22 22 21 24 36 39 40 39 38 32 16 16 16 15
16 16 14 12 10 9 9 8 6 4 6 5 5 5 8 8 12 15 17 10 15 15 18 17 23 24 33 34 23 21 22 20 19 18 19 24 29 26 36 25 17 18 11
16 15 14 13 13 11 8 6 6 6 5 4 5 5 8 7 7 16 19 12 12 15 15 15 14 32 34 38 37 21 25 23 23 20 17 17 16 16 14 16 19 18 16
17 16 13 12 9 9 9 7 6 5 5 4 3 5 4 6 10 14 21 23 23 14 16 14 17 34 37 34 28 34 30 25 16 13 15 15 14 14 13 16 18 17 15
16 16 14 12 10 9 8 7 6 6 4 2 2 3 5 6 6 17 21 24 24 17 13 23 35 31 32 23 28 30 22 11 12 12 13 14 14 14 15 15 19 20 17
16 15 12 12 11 9 7 6 5 5 4 3 1 3 5 6 7 9 9 10 16 14 18 13 21 25 24 24 17 16 12 12 12 12 12 13 13 12 12 12 11 10 9
17 14 14 10 11 10 8 6 5 4 3 2 1 2 4 5 7 17 16 11 12 16 16 12 12 12 14 13 13 13 13 12 12 12 12 13 14 12 11 11 11 10 13
16 12 11 10 9 8 8 7 6 4 4 2 1 1 3 10 16 18 21 23 24 26 10 11 12 13 14 15 15 15 14 15 13 14 12 12 12 12 10 11 9 11 13
17 15 10 10 10 9 8 8 8 5 6 3 2 2 7 10 14 16 19 21 19 17 8 10 12 13 14 14 15 15 16 14 16 13 13 13 12 11 14 11 12 13 12
15 18 11 9 8 8 8 7 6 6 6 4 1 3 8 10 11 14 17 15 9 11 9 11 12 13 14 14 15 16 16 15 15 14 13 12 11 11 11 11 12 10 11
12 11 11 10 8 8 7 7 6 5 4 3 2 3 5 12 9 12 14 6 8 9 10 11 11 13 14 14 14 15 17 16 17 14 13 12 12 11 11 11 12 17 13
13 17 13 10 9 8 7 7 6 5 4 3 2 2 4 4 5 6 6 6 7 8 10 11 12 12 14 14 15 15 16 17 15 13 14 13 12 11 12 13 12 13 14
13 11 16 9 9 8 7 6 6 5 4 3 3 2 4 2 5 5 6 7 7 9 10 11 12 13 13 14 15 15 17 17 16 15 15 14 13 12 12 12 14 14 17
13 12 10 9 9 8 7 6 6 5 4 4 3 1 4 2 2 4 5 6 7 8 8 10 11 12 13 14 16 16 19 20 19 17 17 15 14 12 12 13 13 15 13
13 14 11 10 8 11 7 6 5 5 5 4 2 0 2 2 2 3 5 6 8 9 10 9 11 12 13 14 14 15 17 20 20 19 18 17 16 14 14 13 13 14 7
12 11 11 10 9 8 7 6 5 6 5 4 2 1 1 2 3 5 5 6 8 9 9 10 11 15 16 16 14 15 15 18 19 19 22 17 16 18 14 13 12 15 4
10 10 9 10 9 8 7 6 5 5 4 4 2 1 1 2 2 4 5 6 7 9 11 12 10 16 19 26 23 26 21 29 27 29 17 20 21 22 18 14 16 12 5
10 9 9 9 7 7 6 6 5 5 4 4 2 0 1 1 2 3 4 6 7 9 12 10 13 20 23 19 23 30 26 29 29 33 22 19 19 18 18 18 23 12 13
Wind_Direction
187 182 179 175 176 180 184 192 200 207 220 237 253 271 275 278 280 277 275 279 280 281 280 279 279 281 279 277 273 270 267 262 264 265 275 284 284 284 281 276 278 280 279
184 179 175 169 170 179 185 186 189 206 217 237 254 262 266 267 271 275 281 285 284 283 282 283 281 282 280 281 278 274 272 272 275 276 275 284 280 275 282 284 283 268 260
178 176 172 173 173 179 182 183 190 203 212 232 243 252 260 268 273 276 277 280 280 279 280 280 281 279 276 272 270 271 271 273 272 271 280 284 284 281 284 283 275 276 269
177 176 175 177 173 175 172 178 188 199 216 234 241 256 264 269 275 281 286 286 285 282 283 281 279 275 275 273 267 266 266 267 265 266 271 273 271 278 272 273 275 266 274
175 176 177 170 165 161 165 170 172 192 219 231 250 257 260 265 270 282 287 289 290 290 289 288 282 277 276 274 270 266 260 258 258 261 266 270 271 277 278 271 266 281 242
176 175 168 162 159 165 162 162 172 201 218 231 242 251 265 269 279 287 288 293 298 297 294 289 287 282 277 280 278 274 264 258 252 252 258 259 265 270 277 283 291 292 273
171 167 161 159 158 159 155 162 180 204 214 232 239 249 271 279 280 290 303 302 297 293 291 288 286 278 280 276 275 276 276 273 267 267 265 263 269 270 275 280 281 284 294
166 158 159 154 151 154 162 173 185 203 218 231 244 261 267 276 286 304 312 304 294 288 285 285 284 286 280 279 276 271 268 268 264 259 259 262 263 266 264 268 274 282 277
166 157 157 158 153 157 172 179 186 203 229 238 242 258 270 278 292 316 312 302 293 293 290 288 289 290 299 296 286 280 269 261 259 262 264 263 252 251 255 261 256 256 267
169 155 152 154 157 164 166 172 178 204 231 243 258 268 269 271 301 317 317 303 300 303 301 305 307 302 304 305 297 288 281 278 272 273 265 267 268 257 258 248 252 255 255
155 145 150 154 154 159 160 164 174 206 226 236 259 274 262 279 310 314 315 313 308 310 318 314 311 309 308 309 301 290 275 275 267 270 268 267 261 246 245 248 242 245 244
141 140 149 148 149 158 155 165 187 194 214 220 261 279 310 323 317 315 317 318 322 324 317 314 305 314 315 307 313 311 303 276 279 255 263 264 265 246 246 245 247 241 236
144 139 145 149 152 148 157 162 179 190 207 194 254 305 318 320 318 313 311 323 328 327 317 317 324 317 320 316 317 321 324 320 305 265 260 260 260 247 247 249 240 244 243
143 142 147 146 148 160 159 171 183 193 182 203 243 318 317 330 322 305 315 323 325 326 317 326 322 323 322 323 318 323 319 315 309 301 289 298 271 261 240 239 244 238 241
145 149 150 148 156 155 163 172 178 177 210 218 220 301 327 324 311 323 332 332 334 323 341 326 323 328 326 327 322 323 322 317 314 307 303 295 299 260 243 239 239 237 240
142 149 154 151 151 155 155 150 177 164 208 168 356 307 312 320 324 330 336 342 343 339 346 328 326 329 326 323 328 323 326 321 318 307 301 298 296 297 270 243 241 233 236
151 150 150 151 150 153 160 161 149 161 175 170 31 1 0 338 334 343 344 348 344 352 345 331 324 325 321 321 326 321 324 321 318 307 306 302 295 289 288 291 233 231 230
146 146 143 150 143 145 147 139 144 161 156 161 109 12 12 342 342 352 353 348 342 357 345 326 326 324 320 320 327 320 323 321 320 306 309 303 294 288 288 283 289 239 233
137 133 138 131 140 137 133 133 139 139 143 151 75 53 19 345 345 353 360 356 341 341 332 324 325 323 319 319 326 317 324 322 316 314 313 304 297 290 281 278 274 268 254
131 139 132 133 134 136 133 138 140 143 135 108 84 24 339 350 348 333 341 338 336 333 325 322 323 320 320 323 328 319 327 326 320 326 317 309 302 293 287 282 271 265 254
130 136 132 132 134 133 140 148 143 144 136 132 91 39 343 15 312 330 328 333 335 325 323 320 318 317 319 324 328 322 333 329 329 332 322 314 305 295 284 272 269 262 250
132 133 135 136 133 135 133 144 141 139 137 111 109 177 332 264 304 320 317 323 326 315 313 316 312 318 319 325 326 326 338 334 339 337 328 318 308 302 291 279 269 266 235
133 131 135 130 130 123 129 141 144 141 119 108 120 182 269 282 357 311 316 320 322 317 314 317 316 318 320 326 328 324 340 338 343 338 329 325 321 317 310 295 284 283 202
123 132 131 126 129 128 138 144 134 100 110 129 109 238 279 2 333 315 312 324 316 316 314 316 317 317 322 327 329 322 338 341 347 342 338 333 330 327 322 314 307 271 159
127 127 128 126 123 133 136 143 123 130 143 129 148 249 20 346 327 307 319 317 311 316 314 317 318 322 326 325 330 332 339 346 358 350 344 345 343 346 344 338 329 307 124
122 125 120 112 126 138 133 128 145 149 131 123 153 167 286 290 288 308 317 310 320 314 312 315 317 323 326 327 332 334 341 352 2 356 351 353 354 358 358 353 347 354 354